Home > Time Zones > World Clock > Weather > Norway > Ås > Past weeks

Flag for Norway Weather past 2 weeks in Ås, Norway

Now
39 °F

Passing clouds.


Feels Like: 30 °F
Forecast: 24 / 40 °F
Wind: 18 mph from Southwest

Location: Oslo / Fornebu

Current Time: Mar 31, 2015 at 11:41:43 AM

Latest Report: Mar 31, 2015 at 10:50 AM


Visibility: N/A

Pressure: 28.94 "Hg

Humidity: 75%

Dew point: 32 °F

Location of ÅsLocation

Historic Weather in Ås — Graph

°F

Ås temperature yesterday

Maximum temperature yesterday: 43 °F (at 8:20 AM)
Minimum temperature yesterday: 36 °F (at 9:20 PM)
Average temperature yesterday: 40 °F

Past Weeks' High & Low Weather Summary

 TemperatureHumidityPressure
High50 °F (Mar 17, 10:20 AM)100% (Mar 19, 6:20 AM)30.63 "Hg (Mar 19, 6:20 AM)
Low36 °F (Mar 30, 9:20 PM)39% (Mar 21, 9:50 AM)28.85 "Hg (Mar 28, 8:20 PM)
Average43 °F78%29.83 "Hg
* Reported Mar 16 9:20 AM — Mar 31 10:20 AM, Ås, Weather by CustomWeather, © 2015

Note: Actual official high and low records may vary slightly from our data, if they occured in-between our weather recording intervals... More about our weather records

Advertising

Ås weather history for previous 24 hours

 ConditionsComfort  
Time TempWeatherWind HumidityBarometerVisibility
10:20 AM
Tue, Mar 31
39 °FChilly.13 mph81%28.94 "HgN/A
9:50 AM37 °FBroken clouds.10 mph87%28.97 "HgN/A
9:20 AM37 °FSprinkles. Partly sunny.20 mph87%28.94 "HgN/A
8:50 AM39 °FPartly sunny.7 mph75%28.94 "HgN/A
8:20 AM39 °FSprinkles. Partly sunny.7 mph75%28.94 "HgN/A
7:50 AM39 °FSprinkles. Partly sunny.8 mph70%28.94 "HgN/A
7:20 AM39 °FPassing clouds.8 mph81%28.94 "HgN/A
6:50 AM39 °FPartly cloudy.9 mph81%28.94 "HgN/A
6:20 AM39 °FPassing clouds.8 mph81%28.94 "HgN/A
5:50 AM39 °FPartly cloudy.8 mph81%28.94 "HgN/A
5:20 AM39 °FPassing clouds.10 mph75%28.94 "HgN/A
4:50 AM39 °FPassing clouds.15 mph81%28.94 "HgN/A
4:20 AM39 °FPassing clouds.16 mph75%28.94 "HgN/A
3:50 AM39 °FPassing clouds.17 mph70%28.94 "HgN/A
3:20 AM39 °FPassing clouds.17 mph65%28.97 "HgN/A
2:50 AM39 °FPassing clouds.17 mph75%28.97 "HgN/A
2:20 AM39 °FPassing clouds.20 mph70%28.97 "HgN/A
1:50 AM39 °FPassing clouds.15 mph75%28.97 "HgN/A
1:20 AM39 °FPassing clouds.20 mph75%29.00 "HgN/A
12:50 AM39 °FPassing clouds.21 mph70%29.00 "HgN/A
12:20 AM39 °FPassing clouds.21 mph65%29.00 "HgN/A
11:50 PM
Mon, Mar 30
39 °FPassing clouds.20 mph70%29.03 "HgN/A
11:20 PM39 °FPassing clouds.20 mph61%29.03 "HgN/A
10:50 PM37 °FPassing clouds.16 mph81%29.03 "HgN/A
10:20 PM37 °FLight rain. Passing clouds.28 mph81%29.06 "HgN/A
9:50 PM37 °FPassing clouds.18 mph75%29.06 "HgN/A
9:20 PM36 °FPassing clouds.23 mph75%29.09 "HgN/A
8:50 PM39 °FScattered clouds.24 mph70%29.09 "HgN/A
8:20 PM39 °FScattered clouds.22 mph65%29.09 "HgN/A
7:50 PM39 °FScattered clouds.23 mph61%29.12 "HgN/A
7:20 PM41 °FPassing clouds.23 mph61%29.12 "HgN/A
6:50 PM41 °FPassing clouds.23 mph70%29.12 "HgN/A
6:20 PM39 °FPassing clouds.24 mph75%29.12 "HgN/A
5:50 PM39 °FBroken clouds.25 mph70%29.15 "HgN/A
5:20 PM39 °FSprinkles. Partly sunny.22 mph70%29.15 "HgN/A
4:50 PM39 °FPartly sunny.23 mph65%29.15 "HgN/A
4:20 PM41 °FBroken clouds.32 mph66%29.12 "HgN/A
3:50 PM41 °FLight rain. Partly sunny.26 mph76%29.12 "HgN/A
3:20 PM43 °FPartly sunny.22 mph66%29.15 "HgN/A
2:50 PM41 °FPassing clouds.29 mph70%29.15 "HgN/A
2:20 PM41 °FPartly sunny.29 mph76%29.12 "HgN/A
1:50 PM43 °FScattered clouds.30 mph66%29.12 "HgN/A
1:20 PM41 °FPartly sunny.22 mph76%29.12 "HgN/A
12:50 PM41 °FPartly sunny.20 mph70%29.12 "HgN/A
12:20 PM41 °FSprinkles. Partly sunny.23 mph76%29.12 "HgN/A
11:50 AM43 °FScattered clouds.21 mph71%29.09 "HgN/A
11:20 AM41 °FSprinkles. Partly sunny.17 mph81%29.09 "HgN/A
Weather by CustomWeather, © 2015

See weather overviewHow to use our weather pages